Wind_Speed
27 27 25 24 23 21 20 18 16 15 14 14 14 14 14 14 13 14 14 15 16 17 17 17 17 17 16 15 14 14 13 12 12 13 12 12 12 12 12 12 12 12 13 14
29 28 26 25 25 23 21 20 19 17 16 16 15 15 15 15 14 15 15 16 17 18 18 18 18 18 17 16 16 15 14 14 13 14 14 13 13 13 13 13 13 13 14 15
28 28 27 27 25 24 22 20 19 18 18 17 17 16 16 16 16 15 16 17 18 18 18 18 18 18 18 17 16 16 16 16 16 15 15 15 15 15 14 14 14 15 15 17
27 29 28 26 25 24 22 21 21 20 19 18 18 18 18 17 17 18 18 18 17 18 18 19 19 19 19 19 19 18 18 18 17 17 17 17 17 17 16 16 16 17 18 19
29 28 28 28 25 24 23 22 22 21 21 20 20 19 20 19 19 20 20 19 20 20 20 21 21 20 20 20 20 20 20 19 19 19 19 19 18 19 19 19 19 19 20 21
30 28 26 27 26 25 24 24 23 22 22 22 21 21 21 21 21 21 21 21 22 22 22 22 22 22 21 21 21 21 21 21 20 20 20 20 21 20 21 21 21 21 22 22
30 29 27 28 26 25 25 25 24 23 23 23 23 24 23 23 23 23 24 24 24 24 23 23 23 23 23 22 23 23 22 21 21 22 22 22 22 21 21 22 22 23 23 24
30 28 28 29 27 27 27 26 25 25 25 25 25 25 24 24 24 24 24 24 25 25 24 24 24 24 24 24 24 24 23 23 22 22 23 23 23 23 22 22 22 23 24 25
32 31 31 29 28 27 27 27 27 27 27 27 26 26 26 26 26 25 25 26 26 26 26 26 26 26 26 26 25 25 25 24 24 24 24 24 24 24 23 23 23 24 25 25
33 33 32 30 29 28 28 28 28 28 28 27 27 27 27 27 28 28 27 27 27 27 28 28 28 27 27 26 26 26 26 26 26 26 25 25 25 25 25 24 24 25 26 26
34 33 32 32 30 29 29 29 29 29 29 29 28 28 28 28 28 28 28 28 29 29 29 29 28 27 28 27 28 27 27 27 26 26 25 25 25 26 26 25 25 26 26 27
34 33 32 32 31 31 30 30 30 30 30 30 30 29 29 28 28 28 28 28 29 29 30 29 29 29 29 29 29 29 29 29 28 26 26 27 27 27 27 27 27 28 28 29
34 33 33 33 33 32 32 31 31 31 30 30 29 29 29 28 28 28 28 29 29 29 29 29 29 29 29 29 29 30 30 30 28 28 28 28 29 28 28 28 28 29 30 31
33 33 33 33 32 31 31 31 30 29 29 29 29 29 29 29 29 29 29 29 30 30 30 30 30 30 30 31 31 31 31 30 30 29 29 29 29 29 30 30 30 30 31 31
33 33 32 32 31 31 30 30 29 29 29 30 30 29 29 29 29 30 30 30 30 30 30 30 30 30 31 31 31 32 32 31 31 30 30 30 30 30 30 30 31 31 31 31
33 33 32 32 31 31 30 30 29 30 30 30 30 29 29 29 29 29 30 30 30 30 30 30 30 30 30 31 31 31 31 31 31 31 30 30 31 31 31 31 31 31 32 32
32 32 32 32 31 30 29 30 30 29 29 29 29 29 29 29 29 30 30 30 30 30 29 29 30 30 30 31 32 32 31 31 31 31 31 31 31 31 30 30 30 30 31 31
31 31 31 30 30 30 30 30 30 30 29 29 29 29 30 31 31 31 31 31 30 30 29 29 30 30 31 32 32 31 31 31 31 31 31 31 30 30 30 30 30 30 30 29
29 30 30 30 30 30 29 29 29 29 29 29 30 30 31 31 31 30 30 30 30 30 30 30 31 31 31 31 31 31 31 31 30 30 30 29 29 29 29 29 29 29 30 30
28 28 28 28 28 28 28 28 27 27 27 28 29 29 29 29 29 29 29 30 30 30 31 31 31 31 31 31 30 30 30 30 29 29 29 28 28 28 29 29 30 30 30 30
27 27 26 26 26 26 26 26 27 27 27 27 27 27 27 27 27 27 27 28 29 29 29 30 30 30 30 30 29 29 29 29 28 28 28 28 28 29 29 30 30 29 29 29
24 25 25 25 25 25 25 25 25 25 25 25 25 25 25 25 25 26 26 26 27 27 28 28 28 28 28 28 28 28 28 28 27 27 27 28 28 29 29 29 29 29 29 28
24 24 24 24 24 24 23 24 24 24 24 23 23 23 23 24 24 24 24 25 25 25 25 25 25 26 25 26 26 26 26 26 26 26 27 27 28 29 28 28 28 28 28 28
22 22 23 23 23 23 22 22 23 23 23 22 22 23 23 23 23 23 24 23 23 23 23 23 24 24 24 25 25 24 24 24 24 25 26 26 26 26 26 26 26 26 26 27
21 21 21 21 22 21 21 21 21 21 22 21 21 22 22 22 23 22 22 22 22 22 23 23 23 24 23 23 22 22 22 23 23 24 24 24 24 24 24 24 24 25 26 27
20 20 20 20 20 20 20 21 21 21 21 20 20 20 21 21 21 21 22 22 22 22 22 22 22 22 22 22 22 22 22 22 22 23 23 23 24 24 24 24 25 26 26 27
18 19 19 19 19 20 20 20 20 20 20 20 20 20 20 20 20 21 21 21 21 21 21 21 21 21 21 21 21 21 21 21 21 22 22 23 23 23 23 24 25 26 26 27
Wind_Direction
222 229 233 235 236 237 237 238 242 250 255 260 266 272 276 280 285 292 300 306 310 315 317 319 322 325 324 325 321 316 308 304 301 301 300 298 300 299 295 291 285 282 283 283
227 230 232 234 236 238 240 241 244 248 252 257 263 268 274 278 283 288 293 299 303 309 312 311 315 316 317 318 317 312 304 301 299 298 296 296 296 298 295 292 291 287 287 288
228 231 233 235 237 239 241 244 245 247 251 256 259 266 271 275 281 286 288 294 300 304 307 306 308 310 310 310 310 310 305 298 294 292 291 292 292 294 295 293 291 291 291 290
226 230 231 235 237 238 240 243 245 249 252 256 261 266 269 273 279 281 284 290 296 297 299 303 306 306 306 306 306 304 302 299 295 291 291 290 289 288 289 290 290 291 293 293
225 231 235 236 237 237 240 244 247 251 254 259 263 266 268 272 275 278 282 286 289 291 292 296 300 302 303 304 303 302 300 296 298 293 291 290 291 287 286 286 287 288 291 292
226 226 233 238 237 238 242 247 249 252 255 259 263 265 268 270 272 274 277 281 284 286 288 292 295 297 298 301 302 302 302 299 297 295 294 292 291 288 284 285 286 287 289 291
226 228 232 237 237 239 242 247 250 254 257 261 263 266 269 270 270 273 275 278 281 283 285 289 291 292 294 296 298 300 300 299 298 295 296 295 295 289 285 286 287 287 289 291
225 227 233 236 238 239 244 249 253 256 259 263 265 266 268 269 271 273 274 276 278 280 282 284 287 290 293 294 296 297 297 297 297 297 295 294 294 293 287 287 290 290 290 292
225 228 234 238 240 243 247 251 254 258 260 263 265 266 268 269 271 273 274 275 277 277 280 281 283 287 290 293 295 295 295 295 294 295 293 292 292 290 289 288 288 289 290 292
230 233 237 241 244 247 251 254 257 259 261 264 266 267 268 270 272 273 275 275 276 277 280 281 281 284 287 291 293 294 294 294 294 293 292 292 293 291 289 289 290 291 291 293
232 235 238 242 245 250 254 257 259 261 262 265 266 268 269 270 271 272 274 275 277 279 281 281 281 282 285 288 290 291 292 293 292 292 292 292 293 293 292 292 292 292 292 292
232 235 239 243 246 251 254 257 258 260 263 265 267 267 267 268 269 270 273 275 277 278 279 280 281 283 285 287 288 289 290 291 291 291 291 292 293 293 292 291 292 292 292 293
234 237 241 244 247 250 253 255 257 259 262 264 265 267 267 268 269 271 274 275 276 277 278 280 281 283 284 286 287 288 289 289 289 289 290 291 292 293 292 292 291 291 292 292
235 238 241 244 246 249 252 255 257 259 261 263 264 266 266 268 270 272 275 276 277 278 277 279 280 281 283 284 286 287 288 289 288 289 290 290 291 291 291 291 291 291 292 292
234 238 241 244 246 249 252 253 255 257 261 263 263 265 267 268 270 273 274 276 277 278 278 279 280 281 282 284 286 287 288 288 290 290 289 289 289 289 290 291 291 291 291 292
235 238 241 244 247 250 252 254 256 259 262 264 264 265 267 269 270 272 274 276 278 279 279 279 280 282 283 285 287 287 288 288 290 290 289 289 289 290 291 291 291 292 292 291
237 239 242 244 247 250 252 253 255 259 261 262 263 265 267 270 271 272 274 276 277 278 277 278 280 282 284 285 285 287 288 288 289 289 289 289 289 290 290 291 291 292 293 292
237 240 242 244 246 249 251 254 256 258 259 261 263 266 267 268 270 271 273 274 274 275 275 277 279 281 284 285 286 286 288 288 288 288 288 289 289 288 289 290 291 292 293 294
237 240 242 244 246 249 252 255 257 258 260 262 264 267 269 269 269 269 270 271 272 273 275 277 280 282 284 285 285 286 287 287 287 287 287 288 288 289 289 290 291 292 293 294
237 240 243 244 246 249 252 255 256 258 260 262 265 267 269 269 270 271 271 271 273 275 276 279 281 282 283 284 286 286 286 286 286 286 286 287 288 288 288 289 291 292 292 294
235 238 241 243 246 248 250 253 256 258 260 263 265 267 268 269 270 271 272 273 275 276 278 280 281 282 283 284 284 284 284 285 285 285 286 288 289 289 289 291 291 292 292 294
234 237 241 243 246 249 252 253 255 258 261 263 265 266 267 268 269 270 271 274 276 277 278 279 280 281 282 283 283 283 284 285 286 285 286 287 289 289 290 291 292 293 294 296
236 238 241 244 246 250 253 255 256 259 261 263 264 265 266 268 269 270 273 275 277 278 279 280 281 282 282 283 284 285 285 285 286 287 288 289 290 291 291 293 293 293 295 296
236 238 242 245 247 251 253 255 257 259 261 262 263 266 268 269 270 271 273 275 278 279 280 281 282 282 283 286 286 285 285 286 287 288 290 290 290 290 292 294 295 297 298 299
236 239 242 244 247 250 252 254 256 259 260 261 263 265 266 267 268 271 273 275 277 278 278 280 282 284 286 287 287 287 287 288 289 291 293 293 292 293 294 296 298 300 300 300
237 239 242 244 246 249 252 254 256 258 260 261 263 265 266 267 269 271 273 274 276 278 280 282 284 285 286 287 288 289 289 290 291 292 294 294 293 294 295 296 298 300 301 302
239 242 244 246 248 250 253 255 257 259 260 262 263 264 266 269 271 273 274 275 277 280 282 283 284 285 286 287 288 290 291 292 293 294 295 297 298 298 297 299 301 302 303 304
Height
5895 5898 5901 5904 5906 5909 5912 5914 5917 5918 5917 5917 5917 5917 5916 5915 5915 5914 5912 5911 5909 5907 5905 5903 5900 5898 5896 5894 5892 5890 5888 5886 5885 5884 5882 5881 5879 5877 5876 5874 5873 5872 5872 5871
5889 5892 5896 5898 5901 5904 5907 5909 5911 5912 5913 5913 5913 5913 5912 5912 5911 5910 5909 5908 5906 5904 5902 5900 5898 5896 5894 5892 5889 5887 5885 5884 5882 5881 5880 5878 5876 5875 5873 5871 5870 5869 5868 5867
5885 5887 5890 5893 5896 5899 5902 5904 5906 5907 5909 5908 5908 5908 5908 5908 5907 5906 5905 5904 5903 5901 5899 5897 5895 5893 5891 5889 5887 5885 5882 5880 5879 5877 5876 5875 5873 5871 5870 5868 5867 5866 5864 5863
5879 5882 5885 5890 5891 5894 5896 5898 5900 5901 5902 5903 5904 5904 5904 5904 5903 5902 5901 5900 5899 5897 5895 5893 5891 5889 5887 5885 5883 5881 5879 5877 5875 5873 5872 5870 5869 5867 5866 5865 5863 5862 5860 5859
5873 5876 5880 5883 5886 5888 5891 5893 5895 5896 5897 5898 5898 5899 5899 5899 5898 5898 5897 5896 5895 5893 5891 5890 5888 5885 5883 5881 5879 5877 5875 5872 5871 5869 5868 5866 5864 5862 5861 5860 5859 5857 5855 5854
5867 5872 5875 5878 5880 5883 5886 5887 5889 5890 5891 5892 5893 5893 5893 5893 5893 5892 5891 5890 5889 5888 5887 5885 5883 5881 5879 5877 5875 5873 5870 5868 5866 5865 5863 5861 5859 5857 5856 5855 5853 5852 5850 5848
5860 5865 5868 5870 5874 5877 5881 5882 5883 5884 5885 5886 5886 5887 5887 5886 5886 5886 5885 5884 5883 5882 5881 5880 5878 5876 5874 5872 5870 5868 5865 5863 5862 5860 5858 5856 5854 5852 5850 5849 5847 5846 5844 5842
5854 5859 5863 5864 5868 5871 5873 5875 5876 5877 5878 5879 5880 5880 5880 5880 5879 5879 5878 5878 5877 5876 5875 5874 5872 5870 5868 5866 5864 5862 5860 5858 5856 5854 5852 5850 5848 5846 5845 5843 5841 5839 5838 5836
5848 5853 5854 5857 5861 5864 5866 5868 5869 5870 5872 5872 5872 5873 5873 5873 5873 5872 5872 5871 5870 5869 5868 5867 5866 5864 5862 5860 5858 5856 5855 5853 5850 5848 5846 5845 5842 5840 5838 5836 5835 5833 5831 5829
5840 5844 5848 5851 5854 5856 5858 5860 5861 5863 5864 5865 5865 5866 5866 5866 5866 5865 5865 5864 5863 5862 5861 5860 5858 5857 5855 5854 5852 5850 5848 5846 5844 5842 5840 5838 5836 5834 5832 5829 5828 5826 5824 5822
5833 5837 5840 5843 5846 5849 5851 5852 5854 5855 5856 5857 5857 5858 5858 5858 5858 5858 5857 5857 5856 5855 5854 5852 5851 5850 5848 5847 5845 5843 5841 5839 5837 5835 5833 5831 5829 5827 5825 5823 5821 5819 5817 5815
5825 5830 5833 5836 5839 5841 5843 5845 5846 5847 5848 5849 5850 5850 5850 5850 5850 5850 5849 5849 5848 5847 5846 5845 5844 5843 5841 5840 5838 5836 5834 5832 5830 5828 5825 5823 5821 5820 5817 5815 5813 5811 5809 5807
5818 5821 5825 5828 5831 5833 5835 5837 5838 5839 5840 5841 5841 5842 5842 5842 5842 5842 5841 5841 5840 5839 5838 5837 5836 5835 5834 5832 5830 5829 5827 5824 5822 5820 5818 5816 5814 5812 5810 5808 5805 5803 5801 5798
5810 5814 5817 5820 5823 5825 5827 5828 5830 5831 5832 5833 5833 5834 5834 5834 5834 5834 5833 5833 5832 5831 5830 5829 5828 5827 5826 5824 5823 5821 5819 5817 5815 5812 5810 5808 5806 5804 5802 5799 5797 5795 5792 5790
5802 5806 5809 5812 5814 5817 5819 5820 5822 5823 5824 5825 5825 5826 5826 5826 5826 5825 5825 5824 5823 5823 5822 5821 5820 5819 5817 5816 5814 5812 5810 5808 5806 5804 5802 5799 5797 5795 5793 5791 5788 5786 5784 5781
5794 5797 5801 5804 5806 5808 5810 5812 5813 5815 5816 5816 5817 5818 5818 5817 5817 5817 5816 5816 5815 5814 5813 5812 5811 5810 5808 5807 5805 5803 5801 5799 5797 5795 5793 5791 5789 5787 5784 5782 5779 5777 5774 5772
5786 5790 5793 5796 5798 5800 5802 5804 5805 5806 5807 5808 5809 5809 5809 5809 5809 5808 5808 5807 5806 5805 5805 5804 5802 5801 5800 5798 5797 5795 5793 5790 5788 5786 5784 5782 5780 5778 5775 5773 5770 5768 5765 5763
5778 5782 5785 5787 5790 5792 5794 5796 5797 5798 5799 5800 5800 5800 5801 5801 5800 5800 5799 5799 5798 5797 5796 5795 5794 5793 5791 5789 5788 5785 5783 5781 5779 5777 5775 5773 5771 5769 5766 5764 5761 5759 5756 5754
5771 5774 5777 5780 5782 5784 5786 5788 5789 5790 5791 5791 5791 5791 5791 5791 5791 5791 5790 5790 5789 5789 5788 5786 5785 5784 5782 5780 5778 5776 5774 5772 5770 5768 5766 5764 5762 5760 5757 5755 5753 5750 5747 5745
5764 5767 5769 5772 5774 5776 5778 5779 5781 5782 5782 5783 5783 5783 5782 5782 5782 5782 5781 5781 5780 5779 5778 5777 5776 5774 5773 5771 5769 5767 5765 5763 5761 5759 5757 5755 5753 5751 5749 5746 5744 5741 5739 5736
5757 5759 5762 5764 5766 5768 5770 5771 5773 5773 5774 5774 5774 5774 5774 5774 5773 5773 5772 5772 5771 5770 5769 5768 5766 5765 5763 5762 5760 5758 5756 5754 5753 5751 5749 5747 5745 5742 5740 5738 5735 5733 5730 5728
5750 5752 5755 5757 5759 5761 5762 5763 5764 5765 5766 5766 5766 5766 5766 5765 5765 5764 5764 5763 5762 5761 5760 5759 5757 5756 5755 5753 5751 5749 5747 5746 5744 5742 5740 5738 5736 5734 5732 5729 5727 5724 5722 5719
5744 5746 5748 5750 5752 5754 5755 5756 5757 5757 5758 5758 5758 5758 5758 5757 5757 5756 5756 5755 5754 5753 5752 5750 5749 5748 5746 5745 5743 5741 5739 5737 5736 5734 5732 5730 5728 5725 5723 5721 5719 5716 5713 5711
5737 5740 5742 5743 5745 5746 5748 5748 5749 5750 5750 5750 5750 5750 5750 5750 5749 5749 5748 5747 5747 5745 5744 5743 5742 5740 5739 5737 5735 5733 5731 5730 5728 5726 5724 5722 5720 5717 5715 5713 5711 5708 5705 5703
5731 5733 5735 5737 5738 5739 5740 5741 5742 5742 5743 5743 5743 5743 5743 5743 5743 5742 5741 5740 5739 5738 5737 5736 5735 5733 5731 5730 5728 5726 5724 5723 5721 5719 5717 5715 5713 5710 5708 5706 5703 5701 5698 5695
5725 5727 5729 5730 5732 5733 5734 5735 5735 5736 5736 5736 5736 5736 5736 5736 5736 5735 5734 5734 5733 5732 5731 5729 5728 5726 5725 5723 5721 5720 5718 5716 5714 5712 5710 5708 5706 5703 5701 5699 5696 5694 5691 5687
5720 5722 5723 5725 5726 5727 5728 5728 5729 5729 5730 5730 5730 5730 5730 5730 5729 5728 5728 5727 5726 5725 5724 5723 5721 5720 5718 5717 5715 5713 5712 5710 5708 5706 5704 5701 5699 5696 5694 5692 5689 5686 5683 5680